Regional Weather Roundup
Issued by NWS

Home | Current Version | Previous Version | Graphics & Text | Print | Product List | Glossary Off
Versions: 1 2 3 4 5 6 7 8 9 10 11 12 13 14 15 16 17 18 19 20 21 22 23 24 25 26 27 28 29 30 31 32 33 34 35 36 37 38 39 40 41 42 43 44 45 46 47 48 49 50

000
ASUS43 KMPX 262110
RWRMN
WEATHER ROUNDUP FOR MINNESOTA
NATIONAL WEATHER SERVICE TWIN CITIES/CHANHASSEN MN
400 PM CDT MON SEP 26 2016


NOTE: "FAIR" INDICATES FEW OR NO CLOUDS BELOW 12,000 FEET WITH NO
SIGNIFICANT WEATHER AND/OR OBSTRUCTIONS TO VISIBILITY. N/A MEANS
CURRENT SKY AND/OR WEATHER CONDITIONS ARE NOT AVAILABLE.

MNZ060>063-068>070-262200-
   Twin Cities Metro

CITY           SKY/WX    TMP DP  RH WIND       PRES   REMARKS
TWIN CITIES    MOSUNNY   65  34  31 NW22G37   29.89S
ST PAUL        MOSUNNY   65  35  33 NW24G35   29.89S
CRYSTAL        SUNNY     65  31  28 W23G45    29.88S
BLAINE         MOSUNNY   66  36  32 W26G33    29.87F
LAKEVILLE      SUNNY     64  34  32 W23G33    29.89S
EDEN PRAIRIE   SUNNY     67  31  26 W22G31    29.88F
LAKEVILLE      SUNNY     64  34  32 W23G33    29.89S
SOUTH ST PAUL  SUNNY     65  32  29 NW17G30   29.89S
LAKE ELMO      PTSUNNY   63  39  42 W17G29    29.89F
$$
MNZ001>005-007-008-013>017-022>024-027-028-262200-
   Northwest Minnesota

CITY           SKY/WX    TMP DP  RH WIND       PRES   REMARKS
BEMIDJI        CLOUDY    55  42  61 W28       29.85R
HALLOCK        SUNNY     61  45  55 NW22G30   29.89S
ROSEAU         CLOUDY    54  46  76 W18G25    29.83R
WARROAD        CLOUDY    55  46  71 W17G28    29.80R
THIEF RVR FALL CLOUDY    57  43  59 NW18G25   29.89F
CROOKSTON      MOSUNNY   63  43  48 NW23G29   29.91S
FOSSTON        PTSUNNY   57  39  51 NW24G30   29.90S
DETROIT LAKES  SUNNY     61  36  39 NW21G35   29.92F
MOORHEAD       SUNNY     66  34  30 NW28G33   29.93S
PARK RAPIDS    MOSUNNY   59  37  44 NW29G36   29.87S
MAHNOMEN       MOCLDY    61  41  48 NW21G32   29.90S
$$
MNZ006-009>011-018-025>026-262200-
   North Central Minnesota

CITY           SKY/WX    TMP DP  RH WIND       PRES   REMARKS
BAUDETTE       CLOUDY    54  44  69 NW18G38   29.75R
FLAG ISLAND    CLOUDY    54  46  76 NW22G32   29.74R
INTL FALLS     LGT RAIN  50  48  93 W14G23    29.69R
WASKISH        CLOUDY    55  46  71 W20G32    29.79R
BIG FORK       LGT RAIN  54  45  71 W14G22    29.76R
GRAND RAPIDS   CLOUDY    55  41  59 NW24G35   29.79S
COOK           RAIN      48  46  93 W18       29.70S
WALKER         CLOUDY    57  41  55 NW20G28   29.85R
$$
MNZ012-019>021-037-262200-
   Northeast Minnesota

CITY           SKY/WX    TMP DP  RH WIND       PRES   REMARKS
DULUTH         LGT RAIN  52  44  74 W21G32    29.73S
ELY            LGT RAIN  48  46  93 W17G25    29.64R
HIBBING        CLOUDY    50  43  77 W13G25    29.73S
EVELETH        DRIZZLE   50  46  87 W17G28    29.73R
DULUTH HARBOR  LGT RAIN  57  46  67 W18       29.75S
TWO HARBORS    DRIZZLE   54  48  82 W14       29.68S
SILVER BAY     LGT RAIN  52  48  87 W10G16    29.64S
GRAND MARAIS     N/A     53  51  93 W9G17     29.55R
G MARAIS ARPRT DRIZZLE   48  43  81 W13G25    29.55R
$$
MNZ029>031-032-039>041-046>048-054>057-064-262200-
   West Central Minnesota

CITY           SKY/WX    TMP DP  RH WIND       PRES   REMARKS
FERGUS FALLS   SUNNY     64  32  29 NW26G35   29.95S
MORRIS         SUNNY     70  32  24 W29G36    29.94S
ALEXANDRIA     SUNNY     65  29  25 NW22G39   29.94R
ELBOW LAKE     FAIR      65  32  29 NW25G36   29.94F
GLENWOOD       SUNNY     64  30  27 W32G41    29.93S
BENSON         SUNNY     70  23  17 N26G39    29.95S
ORTONVILLE     SUNNY     66  30  26 NW21G30   29.98S
MADISON          N/A     70  34  26 NW20G29   29.99S
WILLMAR        FAIR      68  32  26 W26G38    29.95F
$$
MNZ033>034-036-042>043-049>051-058-059-262200-
   Central Minnesota

CITY           SKY/WX    TMP DP  RH WIND       PRES   REMARKS
ST CLOUD       MOSUNNY   64  36  35 NW20G30   29.89S
SAUK CENTRE    FAIR      64  31  29 NW30G38   29.91S
PAYNESVILLE    SUNNY     66  30  25 W20G38    29.92S
AITKIN         PTSUNNY   63  36  36 W13G24    29.80S
PINE RIVER     MOSUNNY   61  43  51 W13G23    29.88S
BRAINERD       SUNNY     60  37  42 W17G33    29.86S
STAPLES        MOSUNNY   61  34  36 NW24G33   29.89S
LONG PRAIRIE   FAIR      61  32  33 W26G38    29.91S
LITTLE FALLS   MOSUNNY   61  32  33 W21G39    29.89S
LITCHFIELD     SUNNY     66  34  30 W25G39    29.93S
BUFFALO        SUNNY     65  31  27 W20G31    29.90F
MAPLE LAKE     SUNNY     66  36  33 NW22G30   29.91S
HUTCHINSON     SUNNY     68  35  29 W24G38    29.94S
$$
MNZ037-044-045-052-053-262200-
   East Central Minnesota

CITY           SKY/WX    TMP DP  RH WIND       PRES   REMARKS
PRINCETON      MOSUNNY   64  36  34 W25G31    29.87F
MORA           PTSUNNY   59  36  41 W17G25    29.86S
CAMBRIDGE      PTSUNNY   63  43  48 W15G26    29.85S
MOOSE LAKE     CLOUDY    57  37  47 NW10G18   29.77S
HINCKLEY       MOCLDY    63  41  45 W17G30    29.82S
CLOQUET        CLOUDY    55  39  54 W13G23    29.76S
MCGREGOR       CLOUDY    57  39  51 W20G30    29.80S
$$
MNZ071>073-080-081-089-090-097-098-262200-
   Southwest Minnesota

CITY           SKY/WX    TMP DP  RH WIND       PRES   REMARKS
MONTEVIDEO     SUNNY     70  34  26 N18G28    29.99S
GRANITE FALLS  SUNNY     70  33  25 W18G31    30.00S
CANBY          SUNNY     68  34  28 NW22      30.02S
MARSHALL       SUNNY     68  34  28 NW23G31   30.00S
REDWOOD FALLS  SUNNY     68  32  26 W29G35    29.97F
OLIVIA         SUNNY     70  36  28 W21G35    29.96S
PIPESTONE      SUNNY     68  19  15 NW18G32   30.05F
WINDOM         SUNNY     68  28  22 W21G30    30.02S
WORTHINGTON    SUNNY     67  32  27 W23G31    30.04F
JACKSON        SUNNY     68  21  17 NW23G30   30.03S
TRACY          SUNNY     69  33  26 NW15G30   30.02F
SLAYTON        SUNNY     66  28  24 W18G30    30.04F
$$
MNZ065>067-074>077-082>085-091>093-262200-
   South Central Minnesota

CITY           SKY/WX    TMP DP  RH WIND       PRES   REMARKS
NEW ULM        SUNNY     66  30  26 NW28G37   29.96F
ST JAMES       SUNNY     68  30  24 W21G31    29.99F
FAIRMONT       SUNNY     68  34  28 NW25      30.00F
GLENCOE        SUNNY     67  36  30 W26G35    29.92S
FARIBAULT      SUNNY     66  32  28 W18G31    29.93S
OWATONNA       SUNNY     66  28  24 W23G32    29.94S
WASECA         SUNNY     64  32  29 W23G33    29.96F
ALBERT LEA     SUNNY     66  30  26 W12G29    29.96F
$$
MNZ078>079-086>088-094>096-262200-
   Southeast Minnesota

CITY           SKY/WX    TMP DP  RH WIND       PRES   REMARKS
ROCHESTER      SUNNY     67  32  27 W22G38    29.92S
RED WING       SUNNY     66  32  28 NW18G26   29.88S
STANTON        SUNNY     67  29  24 W25G38    29.90S
DODGE CENTER   SUNNY     66  30  26 NW21G31   29.93R
WINONA         MOSUNNY   64  36  34 NW21G31   29.89S
AUSTIN         SUNNY     64  30  27 W22G33    29.95S
PRESTON        SUNNY     65  31  28 W30G36    29.93S
$$
ABBREVIATIONS USED IN REMARKS
   TC - TEMPERATURES IN CELSIUS
  WCI - WIND CHILL INDEX
   HX - HEAT INDEX
  VSB - VISIBILITY
$$



USA.gov is the U.S. government's official web portal to all federal, state and local government web resources and services.